Погода в Кора-Урсдоне

Россия / Республика Северная Осетия — Алания     43°05′48″N   44°05′33″E
темп.,
°C
ветер,
м/с
пор.,
м/с
влажн.,
%
обл.,
%
осадки,
мм/ч
давл.,
гПа
погр.,
м
15 мая, сб
сб1500:00+14ююз54561 0.0 101559
03:00+13ююз54530 0.0 101556
06:00+14ююз435741 0.0 101649
09:00+21ссв224022 0.0 1014732
12:00+22ссв434751 0.0 10141217
15:00+19св1167100 4.1 1014484
18:00+16ююз227696 2.1 101636
21:00+12ююз437324 2.2 101638
16 мая, вс
вс1600:00+13ююз4368100 0.0 101446
03:00+12ююз436998 0.0 101451
06:00+13ююз43676 0.0 101361
09:00+20св21451 0.0 1011751
12:00+22св33468 0.0 10091276
15:00+22св335121 0.1 10081106
18:00+19всв227210 0.1 1008160
21:00+15ююз446095 0.1 101063
17 мая, пн
пн1700:00+14ююз555399 0.0 100985
03:00+14ююз5548100 0.0 100880
06:00+15ююз5555100 0.0 100871
09:00+23юв13300 0.0 10061032
12:00+24св22344 0.0 10071531
15:00+23св23394 0.0 10071568
18:00+19с2369100 0.0 1008165
21:00+15ююз2271100 0.7 101216
18 мая, вт
вт1800:00+13ююз2267100 0.2 101118
03:00+12ююз32685 0.2 101021
06:00+13св117888 0.0 1012143
09:00+12ююв1290100 0.9 1012221
12:00+14юз127280 8.3 1014489
15:00+12с2294100 9.8 1016423
18:00+12ююз019171 2.0 101682
21:00+10ююз228788 2.1 101715
19 мая, ср
ср1900:00+9ююз328418 0.0 101821
03:00+9юз32834 0.0 101822
06:00+11ююз22800 0.0 101944
09:00+16св22610 0.0 1017812
12:00+19св43608 0.0 10151043
15:00+19св326442 0.0 10151000
18:00+16всв227821 0.0 1015415
21:00+12ююз32810 0.0 101620